Precipitable_Water
0.83 0.97 0.98 1.05 1.03 1.07 1.12 1.12 1.10 1.14 1.22 1.18 1.17 1.21 1.26 1.35 1.36 1.35 1.42 1.44 1.52 1.57 1.58 1.65 1.77 1.79 1.67 1.62 1.59 1.56 1.55 1.55 1.57 1.58 1.60 1.59 1.58 1.63 1.57 1.57 1.66 1.65 1.69
0.86 0.95 0.98 1.03 1.01 1.09 1.18 1.13 1.18 1.27 1.21 1.20 1.20 1.23 1.30 1.34 1.41 1.45 1.47 1.49 1.53 1.60 1.64 1.65 1.79 1.79 1.66 1.65 1.62 1.62 1.63 1.64 1.65 1.67 1.68 1.69 1.70 1.66 1.63 1.69 1.72 1.75 1.76
0.80 0.95 1.00 1.00 1.04 1.10 1.17 1.16 1.25 1.27 1.24 1.24 1.24 1.25 1.33 1.39 1.48 1.56 1.55 1.59 1.58 1.65 1.67 1.70 1.79 1.83 1.67 1.66 1.63 1.63 1.63 1.64 1.66 1.60 1.65 1.65 1.65 1.67 1.71 1.75 1.74 1.80 1.81
0.83 0.96 0.98 1.03 1.05 1.13 1.16 1.21 1.26 1.20 1.20 1.23 1.23 1.21 1.26 1.41 1.48 1.54 1.57 1.58 1.62 1.63 1.66 1.72 1.81 1.85 1.69 1.62 1.63 1.63 1.64 1.62 1.60 1.61 1.61 1.63 1.65 1.68 1.72 1.73 1.76 1.78 1.77
0.85 0.98 1.02 1.03 1.06 1.10 1.18 1.19 1.20 1.20 1.19 1.17 1.19 1.17 1.22 1.36 1.43 1.55 1.61 1.63 1.65 1.65 1.67 1.75 1.84 1.82 1.73 1.66 1.63 1.61 1.64 1.63 1.64 1.70 1.70 1.74 1.76 1.80 1.81 1.81 1.81 1.83 1.85
0.88 0.99 1.03 1.03 1.07 1.08 1.12 1.13 1.16 1.15 1.17 1.13 1.14 1.16 1.28 1.40 1.53 1.61 1.63 1.55 1.55 1.66 1.70 1.75 1.87 1.84 1.75 1.69 1.67 1.60 1.57 1.67 1.76 1.73 1.73 1.80 1.94 2.07 1.99 1.93 1.94 1.94 1.94
0.89 0.99 1.00 1.01 1.03 1.01 1.00 1.06 1.10 1.15 1.13 1.12 1.19 1.22 1.36 1.44 1.52 1.55 1.59 1.54 1.52 1.53 1.60 1.75 1.91 1.82 1.81 1.74 1.71 1.60 1.56 1.64 1.73 1.74 1.76 1.78 1.89 1.99 2.01 2.01 2.00 2.06 2.04
0.90 0.96 0.97 1.00 1.01 0.98 0.98 0.98 0.99 1.05 1.07 1.10 1.19 1.20 1.34 1.49 1.56 1.57 1.61 1.56 1.53 1.55 1.67 1.72 1.84 1.84 1.89 1.80 1.70 1.63 1.60 1.64 1.68 1.74 1.74 1.79 1.84 1.88 1.84 1.80 1.81 1.81 1.80
0.93 0.92 0.93 0.98 0.97 0.96 0.96 0.95 0.97 1.01 1.07 1.07 1.11 1.15 1.28 1.47 1.58 1.62 1.64 1.65 1.60 1.59 1.68 1.76 1.90 1.82 1.85 1.82 1.77 1.68 1.64 1.75 1.70 1.72 1.75 1.83 1.89 1.91 1.85 1.81 1.78 1.75 1.73
0.85 0.85 0.89 0.95 0.96 0.97 0.94 0.93 0.93 0.96 1.02 1.04 1.12 1.16 1.21 1.28 1.44 1.55 1.66 1.67 1.72 1.71 1.70 1.78 1.69 1.83 1.82 1.78 1.75 1.71 1.68 1.74 1.71 1.77 1.81 1.83 1.89 1.90 1.86 1.83 1.78 1.72 1.69
0.80 0.82 0.91 0.95 0.97 1.02 0.98 0.94 0.95 1.00 0.99 1.05 1.12 1.13 1.17 1.21 1.35 1.44 1.53 1.67 1.67 1.68 1.75 1.76 1.78 1.72 1.73 1.66 1.67 1.65 1.70 1.78 1.77 1.72 1.73 1.78 1.88 1.89 1.88 1.83 1.78 1.74 1.70
0.72 0.78 0.90 0.94 0.96 0.97 0.97 0.98 0.98 0.99 1.00 1.04 1.06 1.06 1.08 1.18 1.30 1.40 1.47 1.62 1.65 1.70 1.80 1.83 1.77 1.78 1.72 1.70 1.63 1.70 1.74 1.79 1.76 1.70 1.70 1.72 1.74 1.73 1.72 1.72 1.69 1.67 1.68
0.75 0.84 0.89 0.93 0.96 0.96 0.98 0.98 0.95 0.96 0.97 0.98 1.00 1.03 1.13 1.28 1.36 1.48 1.57 1.69 1.70 1.68 1.81 1.76 1.70 1.64 1.61 1.62 1.67 1.73 1.74 1.74 1.67 1.61 1.65 1.70 1.73 1.70 1.65 1.60 1.58 1.55 1.55
0.77 0.85 0.91 0.95 0.96 1.00 1.00 0.95 0.92 0.92 0.92 0.90 0.99 1.08 1.14 1.22 1.28 1.40 1.49 1.66 1.63 1.71 1.67 1.68 1.66 1.66 1.65 1.66 1.70 1.68 1.68 1.68 1.65 1.66 1.68 1.69 1.71 1.71 1.66 1.66 1.59 1.53 1.48
0.73 0.83 0.91 0.97 0.98 0.98 0.97 0.94 0.90 0.89 0.88 0.90 1.01 1.10 1.15 1.21 1.26 1.37 1.48 1.56 1.65 1.68 1.62 1.61 1.62 1.63 1.60 1.63 1.65 1.63 1.61 1.60 1.57 1.57 1.58 1.59 1.60 1.55 1.51 1.43 1.37 1.28 1.18
0.77 0.80 0.91 0.96 1.00 0.98 0.91 0.89 0.87 0.90 0.88 0.93 0.99 1.05 1.13 1.25 1.30 1.37 1.44 1.56 1.58 1.60 1.60 1.58 1.56 1.54 1.54 1.53 1.49 1.51 1.51 1.51 1.49 1.47 1.44 1.38 1.26 1.21 1.18 1.13 1.09 1.04 1.00
0.82 0.90 0.89 0.96 1.00 0.96 0.90 0.87 0.87 0.87 0.89 0.92 1.01 1.04 1.08 1.16 1.27 1.28 1.32 1.40 1.47 1.55 1.55 1.55 1.49 1.44 1.42 1.44 1.40 1.38 1.36 1.34 1.30 1.26 1.22 1.12 1.08 1.07 1.04 0.98 0.97 0.91 0.87
0.87 0.89 0.93 1.01 0.99 0.97 0.92 0.88 0.89 0.88 0.91 0.93 0.99 1.02 1.05 1.10 1.16 1.21 1.31 1.39 1.46 1.49 1.48 1.45 1.40 1.35 1.34 1.33 1.32 1.30 1.25 1.22 1.17 1.11 1.05 0.99 0.93 0.91 0.89 0.88 0.87 0.82 0.78
0.91 0.87 0.90 0.99 1.00 0.98 0.94 0.91 0.90 0.91 0.91 0.95 0.98 0.97 0.97 0.98 1.03 1.08 1.14 1.23 1.35 1.39 1.41 1.39 1.35 1.31 1.24 1.22 1.20 1.19 1.15 1.07 1.03 0.96 0.88 0.84 0.82 0.79 0.78 0.76 0.76 0.74 0.73
0.89 0.98 0.91 0.96 1.07 1.01 0.95 0.93 0.92 0.90 0.88 0.93 0.92 0.88 0.87 0.88 0.89 0.97 1.06 1.13 1.24 1.34 1.36 1.35 1.31 1.29 1.22 1.16 1.09 0.99 0.97 0.92 0.89 0.82 0.76 0.72 0.69 0.66 0.66 0.65 0.66 0.67 0.70
0.76 0.83 0.88 0.94 1.01 1.04 0.90 0.84 0.84 0.81 0.80 0.83 0.83 0.82 0.82 0.77 0.82 0.90 0.98 1.06 1.14 1.20 1.30 1.32 1.29 1.21 1.12 1.06 0.93 0.86 0.86 0.90 0.86 0.77 0.71 0.64 0.58 0.55 0.53 0.57 0.59 0.61 0.63
0.57 0.68 0.77 0.84 0.93 1.03 0.95 0.91 0.90 0.90 0.83 0.79 0.76 0.72 0.74 0.69 0.69 0.76 0.90 0.99 1.07 1.14 1.19 1.24 1.23 1.14 1.05 0.97 0.82 0.76 0.68 0.71 0.70 0.68 0.64 0.59 0.51 0.46 0.43 0.44 0.44 0.52 0.54
0.53 0.61 0.69 0.77 0.81 1.00 0.97 0.97 0.96 0.94 0.87 0.75 0.70 0.67 0.67 0.68 0.62 0.58 0.63 0.81 0.95 0.99 1.01 1.05 1.07 1.05 0.91 0.87 0.83 0.70 0.60 0.55 0.59 0.60 0.57 0.51 0.46 0.42 0.39 0.38 0.40 0.44 0.50
0.51 0.57 0.67 0.76 0.84 0.92 1.01 0.96 0.92 0.81 0.77 0.73 0.70 0.67 0.66 0.66 0.64 0.61 0.56 0.53 0.64 0.77 0.80 0.85 0.87 0.84 0.82 0.74 0.70 0.62 0.58 0.56 0.50 0.45 0.50 0.45 0.42 0.40 0.39 0.38 0.39 0.40 0.40
0.50 0.54 0.60 0.70 0.80 0.92 0.97 0.99 0.93 0.88 0.88 0.83 0.73 0.69 0.66 0.63 0.60 0.57 0.51 0.47 0.49 0.55 0.61 0.65 0.66 0.67 0.67 0.67 0.69 0.60 0.57 0.55 0.56 0.52 0.50 0.49 0.49 0.50 0.49 0.47 0.45 0.43 0.42
0.50 0.53 0.58 0.63 0.73 0.84 0.98 0.96 0.97 0.92 0.89 0.85 0.75 0.66 0.66 0.64 0.60 0.55 0.51 0.48 0.47 0.49 0.51 0.54 0.58 0.59 0.59 0.60 0.58 0.56 0.59 0.62 0.65 0.64 0.62 0.60 0.60 0.61 0.63 0.63 0.63 0.63 0.60
Wind_Speed
13 11 12 11 12 11 11 11 11 11 12 12 13 14 14 14 15 15 15 16 16 16 16 17 16 16 16 15 14 14 14 14 14 14 15 15 15 15 16 16 15 16 15
12 12 12 12 12 12 12 11 11 12 12 12 13 14 15 15 16 16 17 17 18 18 18 18 18 18 17 17 16 15 15 15 15 15 16 16 16 17 17 16 16 17 16
11 12 13 12 12 13 12 12 12 12 12 13 13 14 15 15 16 16 17 17 18 19 20 20 20 19 19 18 18 17 16 16 16 17 17 16 17 17 17 17 17 17 17
14 13 13 13 13 13 12 13 13 13 13 13 14 14 15 15 15 16 17 18 19 20 21 22 22 20 20 20 19 19 18 18 18 18 17 17 17 18 18 18 17 17 17
15 14 14 14 14 14 13 13 13 13 13 13 14 14 15 15 16 17 17 18 19 21 21 23 25 23 21 22 21 20 20 19 19 17 17 17 18 18 19 18 18 18 17
16 15 14 15 14 15 15 14 13 13 13 14 14 14 15 16 17 17 18 18 18 20 22 24 27 26 24 23 23 22 22 21 18 18 18 18 18 19 19 19 18 18 17
17 16 15 16 16 16 16 15 14 14 14 13 13 14 15 16 17 18 19 20 21 23 24 27 29 28 27 25 24 24 23 20 19 19 19 19 19 19 19 19 19 18 17
18 17 17 17 17 17 16 16 15 15 14 13 14 14 15 16 17 18 19 19 19 20 21 28 34 27 27 25 25 24 23 21 20 19 19 20 20 19 19 18 18 17 16
20 19 18 18 18 18 18 17 16 15 14 14 14 15 15 16 16 17 19 19 20 20 19 24 30 24 25 25 24 24 21 21 21 21 21 20 20 19 19 19 18 17 16
23 22 21 19 19 19 18 17 16 16 15 13 14 14 14 15 16 17 18 20 20 21 22 27 27 27 25 24 23 24 22 21 21 21 20 21 21 20 20 19 18 17 16
25 24 22 21 20 19 18 17 16 15 15 14 13 13 14 14 14 16 18 19 19 20 24 36 29 27 25 25 23 24 23 20 21 21 22 22 21 20 19 18 17 16 15
26 25 23 22 21 20 19 17 16 15 14 13 13 13 13 13 12 14 17 19 18 12 23 31 30 23 25 23 23 23 21 24 24 23 23 22 21 20 18 17 16 15 14
26 25 24 23 22 21 20 18 17 16 15 14 13 12 12 12 10 9 8 15 21 25 25 29 25 24 23 21 22 24 25 25 24 25 22 22 20 19 17 16 15 15 14
26 25 25 24 23 22 21 20 18 17 17 16 14 12 12 12 10 9 8 11 18 30 30 27 26 24 23 22 25 25 26 26 24 23 22 21 19 17 17 16 15 14 14
26 27 27 26 25 24 23 21 19 18 17 16 15 13 11 11 11 10 11 14 25 29 26 24 24 24 22 25 25 27 27 25 24 22 21 19 18 17 17 16 15 14 13
28 28 28 27 26 25 24 22 21 19 18 17 15 14 13 12 13 13 13 18 19 24 26 26 23 23 24 27 26 26 24 24 22 21 20 18 17 16 16 15 15 14 13
30 29 29 29 27 26 25 24 22 21 19 18 17 16 15 15 15 14 16 18 20 26 25 24 25 23 24 26 26 25 23 23 21 20 19 19 17 16 16 15 14 14 13
32 32 31 31 29 28 26 25 24 22 21 20 19 18 17 17 17 18 18 19 23 26 25 26 25 23 24 26 25 24 23 22 21 19 19 19 18 17 16 15 15 14 14
33 33 33 34 32 30 28 27 25 24 22 21 21 20 19 19 19 19 20 21 22 25 26 27 26 27 26 25 25 24 24 22 21 20 19 19 18 18 17 16 15 15 14
29 34 35 35 36 33 31 29 27 26 24 23 22 21 21 20 20 20 20 21 22 23 26 25 27 27 27 27 25 24 25 23 22 21 20 20 19 18 18 17 17 16 15
33 32 35 38 38 37 34 32 31 29 27 26 24 23 22 21 21 22 22 22 22 24 26 25 27 28 27 27 26 23 22 23 23 23 22 21 20 20 20 19 18 18 17
33 36 37 37 41 40 38 36 34 32 30 29 27 26 24 23 22 23 24 24 23 25 25 26 27 27 27 27 25 24 23 23 22 22 23 22 22 22 21 20 20 20 19
32 34 36 40 40 44 41 39 37 35 33 31 30 29 27 26 25 24 24 24 25 25 26 27 27 28 27 26 27 24 23 23 23 23 23 23 22 22 22 21 21 21 21
33 34 36 38 41 44 45 42 41 38 37 35 34 32 31 30 29 27 26 26 26 26 26 27 27 27 28 27 26 24 23 23 23 23 23 23 22 22 22 22 22 22 22
34 35 36 38 39 42 46 45 44 41 39 38 37 36 34 33 32 31 30 29 28 27 27 27 27 26 26 26 26 25 24 22 23 22 23 23 22 22 22 21 21 22 22
34 34 35 36 38 38 46 46 46 45 43 41 41 39 37 36 35 33 32 31 30 30 29 28 28 27 26 26 25 24 23 23 24 23 23 24 24 25 26 26 26 25 25
Wind_Direction
251 247 245 247 245 242 249 253 253 254 256 258 257 253 250 246 242 239 236 234 230 226 222 217 210 205 201 198 195 191 187 182 178 175 171 169 167 164 162 161 158 155 151
241 243 246 247 243 242 248 249 253 258 259 260 259 254 250 246 243 240 239 236 232 227 222 217 211 206 202 197 193 188 184 180 176 172 169 167 165 162 161 161 157 155 152
242 248 246 246 241 244 245 248 258 258 260 262 261 256 250 246 242 242 239 236 232 227 223 218 212 204 199 196 192 187 182 178 174 170 167 168 166 164 162 159 157 155 152
250 248 247 243 242 243 244 250 257 260 263 264 260 257 249 244 242 242 239 238 233 228 224 218 211 206 200 196 191 186 182 177 173 169 171 169 169 168 166 162 159 157 155
247 248 248 242 243 239 244 254 258 260 263 264 261 255 247 244 245 242 240 238 235 230 223 218 212 204 198 194 191 186 182 179 176 174 170 170 169 169 166 164 161 159 159
245 245 245 245 243 239 246 253 258 261 263 264 260 252 247 247 247 244 240 239 239 227 223 218 212 204 196 192 190 187 183 181 180 174 171 168 166 165 165 164 163 160 158
243 245 248 245 244 242 246 251 256 260 263 263 256 250 249 250 249 247 243 242 239 233 229 221 215 205 195 190 190 186 184 184 181 178 175 173 170 166 163 160 158 155 154
242 247 248 246 244 244 245 249 255 258 261 260 254 252 252 253 252 247 245 242 236 231 229 215 216 198 187 186 186 185 185 185 183 179 176 174 172 171 170 169 168 166 163
245 247 248 247 245 244 246 248 253 255 257 258 254 255 254 256 255 251 246 238 234 231 225 214 197 198 190 185 180 184 184 182 180 180 178 177 174 171 169 168 166 164 162
246 248 246 245 244 243 244 246 249 251 254 256 255 255 251 255 255 253 244 236 234 232 223 210 208 184 178 179 180 185 181 181 185 181 177 176 174 171 167 164 163 163 162
246 246 243 243 243 241 241 244 246 247 249 252 254 252 250 255 257 255 244 234 231 233 240 203 199 188 186 184 183 183 185 183 176 174 174 171 167 165 162 163 163 164 165
243 241 239 240 240 238 240 241 240 242 246 248 251 251 251 253 259 256 245 230 222 195 163 175 174 177 181 185 187 188 190 177 172 171 168 168 166 168 168 167 169 171 172
241 238 237 237 237 236 235 238 241 241 243 247 247 252 248 245 250 243 236 214 209 194 171 165 171 174 175 175 171 168 167 165 167 173 171 173 177 178 178 179 179 180 183
236 235 235 236 235 234 234 238 239 238 242 246 245 246 241 239 233 224 212 191 178 174 173 176 172 173 176 175 171 170 167 166 168 166 166 171 173 175 178 184 188 193 197
237 235 235 234 234 233 233 235 237 236 239 241 237 234 231 226 215 201 193 174 178 174 177 175 172 176 179 170 166 168 171 173 175 176 179 180 184 188 189 190 192 194 199
236 235 233 233 232 232 232 232 233 233 235 234 230 227 223 217 212 204 192 181 177 186 177 176 176 175 174 174 173 174 173 176 179 182 185 188 190 191 193 193 199 200 204
237 234 232 231 230 230 230 231 231 232 232 230 226 224 221 219 215 206 200 199 188 172 172 176 178 179 181 180 184 183 185 186 189 193 197 197 197 197 199 201 202 205 209
237 234 233 231 230 229 230 229 230 230 230 228 227 225 223 219 213 211 207 201 199 200 199 194 192 190 187 188 190 191 192 191 193 197 199 199 201 203 205 207 209 211 213
238 235 232 230 230 229 229 228 229 229 229 229 227 225 221 217 214 212 207 204 203 204 202 202 204 197 192 192 192 194 197 198 201 202 203 204 207 211 212 212 214 216 218
244 236 234 231 230 229 229 228 229 228 229 228 226 224 218 216 212 210 207 204 201 199 197 199 196 198 198 197 196 199 203 206 207 209 211 212 214 215 217 218 221 222 224
243 242 239 231 229 229 229 229 228 228 228 227 224 220 217 216 212 209 207 204 203 200 199 200 196 196 196 197 199 201 204 209 213 216 216 218 220 220 221 224 225 227 230
245 243 240 237 232 231 229 230 230 228 227 226 222 220 219 216 213 210 207 205 203 200 199 199 200 199 199 201 205 205 211 215 217 219 221 223 223 222 224 228 230 232 236
248 245 242 240 237 231 230 229 228 227 227 225 223 221 220 217 212 210 207 205 204 203 204 205 204 202 204 207 206 213 214 219 216 221 223 223 224 225 228 231 233 236 239
250 247 243 240 237 233 229 228 226 227 227 226 224 222 220 218 216 214 212 209 206 207 206 207 208 209 211 211 213 218 220 217 220 221 223 224 225 227 230 233 236 239 242
250 247 244 241 238 234 227 227 226 227 227 225 224 222 221 220 219 217 215 212 211 210 209 209 209 212 213 214 217 219 220 222 221 224 224 225 227 230 233 236 239 243 245
250 248 245 242 238 235 227 227 226 226 225 224 224 223 223 221 220 218 216 216 215 214 213 213 213 213 214 215 217 219 220 225 225 228 230 228 232 237 242 243 245 247 247